Hourly Data Report for October 10, 2014

All times are specified in Local Standard Time (LST). Add 1 hour to adjust for Daylight Saving Time where and when it is observed.

KITCHENER/WATERLOO
ONTARIO

43°27'39.000" N
80°22'43.000" W
321.60 m
6144239
71368
YKF

Download Data

Hourly Data (October 2014)
Hourly Data Report for October 10, 2014
Temp Definition
°C
Dew Point Temp Definition
°C
Rel Hum Definition
%
Wind Dir Definition
10's deg

Wind Spd Definition
km/h
Visibility Definition
km
Stn Press Definition
kPa
Hmdx Definition


Wind Chill Definition


Weather Definition


TIME
00:00 Legend Double Dagger 3.7 2.2 90 23 8 16.1 97.94     LegendNANA
01:00 Legend Double Dagger 4.8 3.2 89 23 9 16.1 97.98     LegendNANA
02:00 Legend Double Dagger 6.0 3.9 86 25 8 16.1 98.00     LegendNANA
03:00 Legend Double Dagger 4.4 2.6 88 27 11 16.1 97.99     LegendNANA
04:00 Legend Double Dagger 4.2 2.4 88 27 9 16.1 98.04     LegendNANA
05:00 Legend Double Dagger 3.4 2.0 91 30 8 16.1 98.08     LegendNANA
06:00 Legend Double Dagger 2.6 1.4 92 21 5 16.1 98.13     LegendNANA
07:00 Legend Double Dagger 1.9 1.3 96 26 8 16.1 98.16     LegendNANA
08:00 Legend Double Dagger 7.2 4.2 81 25 8 16.1 98.18     LegendNANA
09:00 Legend Double Dagger 7.7 2.9 72 30 15 16.1 98.21     LegendNANA
10:00 Legend Double Dagger 9.1 1.6 59 29 21 16.1 98.19     LegendNANA
11:00 Legend Double Dagger 9.6 2.0 59 29 26 16.1 98.19     LegendNANA
12:00 Legend Double Dagger 10.5 2.1 56 29 17 16.1 98.17     LegendNANA
13:00 Legend Double Dagger 10.0 2.8 61 30 17 16.1 98.13     LegendNANA
14:00 Legend Double Dagger 9.7 3.7 66 30 17 16.1 98.13     LegendNANA
15:00 Legend Double Dagger 9.9 2.9 62 30 18 16.1 98.12     LegendNANA
16:00 Legend Double Dagger 9.5 0.9 55 29 15 16.1 98.11     LegendNANA
17:00 Legend Double Dagger 8.6 1.0 59 32 15 16.1 98.14     LegendNANA
18:00 Legend Double Dagger 6.3 1.6 72 32 11 16.1 98.16     LegendNANA
19:00 Legend Double Dagger 4.3 1.8 84 33 4 16.1 98.19     LegendNANA
20:00 Legend Double Dagger 2.9 1.4 90   0 16.1 98.19     LegendNANA
21:00 Legend Double Dagger 2.0 1.3 95 LegendMM 4 16.1 98.22     LegendNANA
22:00 Legend Double Dagger 2.1 1.5 96   0 16.1 98.24     LegendNANA
23:00 Legend Double Dagger 1.1 0.8 98   0 16.1 98.21     LegendNANA

Notes on Data Quality.

Legend

  • E = Estimated
  • M = Missing
  • NA = Not Available
  • ‡ = Partner data that is not subject to review by the National Climate Archives
Date modified: